Showing default

IRIDIUM 153, 43078

Orbit data source: Space-Track

IRIDIUM 153, 43078 is a payload satellite owned by Iridium (US) in LEO that was launched on Sat, 23 Dec 2017 UTC via an FALCON 9 launch vehicle from the Air Force Western Test Range (AFWTR). Payload-class satellites include a variety of spacecraft equipped with specific instruments for various scientific and technological missions. These include communications satellites like Starlink; space stations such as the ISS; scientific satellites like the Hubble; Earth observation satellites from companies like Planet Labs, Umbra, and HawkEye 360; GPS; miniature CubeSats for education and research; and military/defense satellites.

Loading next visibility...
Identifier
43078, 2017-083J
Orbit
LEO
Country
Flag of USUS
Related business
Manufacturer
OATK SSG Gilbert
Mission
Operational Commercial Communications
Bus & Motor
ELITEBUS, Unknown motor
Mass
860 kg wet, 700 kg dry
Launch date (UTC)
2017-12-23 (8 years ago)
Launch vehicle
FALCON 9
Launch site
Air Force Western Test Range (AFWTR)
Object type
Payload
Rocket body
Debris
Shape & HBR
Trap Box + 2 Pan, 4.8 m
Radar Cross Section
10.154 m², Large (>1 m²)

Expand to show TLE details & history
Last TLE update: 1 day ago

TLE from 1 day ago
0 IRIDIUM 153
1 43078U 17083J   25286.38323104  .00000302  00000-0  10087-3 0  9992
2 43078  86.4009  33.6280 0002518  96.9302 263.2180 14.34215874409901
Epoch: 2025-10-13T09:11Z
TLE epoch observation values (Epoch: 2025-10-13T09:11:51.161Z)
Latitude
-0.00008°
Longitude
-126.52198°
Altitude
780.938 km
Speed
7.463 km/s
True Right ascension
02h 14m 30s
True Declination
0° 00' 00"
Sunlit
Object was in full shadow at epoch
Visualization orbit readout
Latitude
Unknown
Longitude
Unknown
Altitude
Unknown
Speed
Unknown
Apparent Right ascension
Unknown
Apparent Declination
Unknown
Sunlit
N/A
Visualization observer readout
Local Sidereal Time
05:33:34
Azimuth
Unknown
Elevation
Unknown
Doppler factor
Unknown
Orbital elements
Apogee altitude
776.439 km
Perigee altitude
772.837 km
Semi-major axis
7,152.775 km
Eccentricity
0.00025
Inclination
86.4009°
RAAN
33.628°
Arg. of periapsis
96.9302°
True anomaly
263.18935°
Mean anomaly
263.218°
Eccentric anomaly
263.20367°
Mean motion
3.58783 °/min
Orbital period
100.34 mins
BSTAR
0.00010087
Loading maneuver chart data...
Computing Atmospheric mass density...
Loading historical data...
Loading historical data...
Loading historical data...
Loading historical data...
Loading historical data...
Loading historical data...
Loading historical data...

Documentation

Showing up to 5 results
|